CW4086 Weather Reports


Display with metric or nautical units.
time (UTC)temp
F
wind
direction
speed
MPH
gust
MPH
rain 1hr
in
rain 24hr
in
rain mn
in
humidity
%
barometer
mb
20260509180604 78 280 2.0 7.0 0.00 0.00 0.00 35 1012.7
20260509180103 78 298 4.0 7.0 0.00 0.00 0.00 36 1012.7
20260509175603 77 282 3.0 7.0 0.00 0.00 0.00 37 1012.7
20260509175104 77 287 5.0 7.0 0.00 0.00 0.00 37 1012.7
20260509174604 76 266 3.0 7.0 0.00 0.00 0.00 38 1012.7
20260509174104 76 268 3.0 7.0 0.00 0.00 0.00 39 1012.8
20260509173104 76 263 4.0 8.0 0.00 0.00 0.00 40 1012.8
20260509172603 75 252 3.0 5.0 0.00 0.00 0.00 43 1012.7
20260509172105 75 307 3.0 6.0 0.00 0.00 0.00 44 1012.7
20260509171603 74 288 3.0 6.0 0.00 0.00 0.00 44 1012.6
20260509171104 74 299 2.0 5.0 0.00 0.00 0.00 45 1012.7
20260509170604 74 276 2.0 5.0 0.00 0.00 0.00 45 1012.7
20260509170104 73 287 3.0 5.0 0.00 0.00 0.00 46 1012.7
20260509165604 72 283 2.0 6.0 0.00 0.00 0.00 47 1012.7
20260509165104 72 281 3.0 6.0 0.00 0.00 0.00 46 1012.8
20260509164604 72 294 3.0 5.0 0.00 0.00 0.00 45 1012.8
20260509164104 71 292 2.0 5.0 0.00 0.00 0.00 46 1012.8
20260509163604 71 290 2.0 5.0 0.00 0.00 0.00 42 1012.9
20260509162605 69 307 2.0 3.0 0.00 0.00 0.00 44 1012.7
20260509162104 69 307 1.0 3.0 0.00 0.00 0.00 45 1012.7
20260509161606 68 307 1.0 3.0 0.00 0.00 0.00 47 1012.8
20260509161103 67 307 1.0 3.0 0.00 0.00 0.00 47 1012.8
20260509160604 67 307 2.0 3.0 0.00 0.00 0.00 50 1012.9
20260509155604 66 307 1.0 3.0 0.00 0.00 0.00 55 1012.8
20260509155104 65 307 2.0 3.0 0.00 0.00 0.00 57 1012.9
20260509154604 65 28 2.0 3.0 0.00 0.00 0.00 58 1012.9
20260509154104 65 57 2.0 3.0 0.00 0.00 0.00 59 1012.9
20260509153604 64 57 1.0 3.0 0.00 0.00 0.00 59 1013.0
20260509153104 64 60 2.0 3.0 0.00 0.00 0.00 60 1013.0
20260509152604 64 67 2.0 3.0 0.00 0.00 0.00 62 1013.0
20260509152104 63 68 1.0 2.0 0.00 0.00 0.00 62 1013.0
20260509151607 63 68 1.0 3.0 0.00 0.00 0.00 63 1013.0
20260509151104 63 68 2.0 3.0 0.00 0.00 0.00 64 1013.0
20260509150604 62 68 0.0 3.0 0.00 0.00 0.00 65 1013.0
20260509145103 63 68 1.0 2.0 0.00 0.00 0.00 64 1013.0
20260509144604 63 68 0.0 1.0 0.00 0.00 0.00 66 1013.0
20260509144104 62 68 0.0 1.0 0.00 0.00 0.00 64 1013.0
20260509143104 62 68 0.0 1.0 0.00 0.00 0.00 62 1013.0
20260509142604 62 68 0.0 1.0 0.00 0.00 0.00 61 1013.0
20260509142106 62 68 0.0 0.0 0.00 0.00 0.00 61 1012.9
20260509141604 61 68 0.0 0.0 0.00 0.00 0.00 59 1012.8
20260509141104 61 68 0.0 1.0 0.00 0.00 0.00 58 1012.7
20260509140605 60 68 0.0 1.0 0.00 0.00 0.00 56 1012.7
20260509140104 60 68 0.0 1.0 0.00 0.00 0.00 54 1012.8
20260509135604 59 68 0.0 1.0 0.00 0.00 0.00 54 1012.8
20260509135104 58 67 0.0 1.0 0.00 0.00 0.00 53 1012.8
20260509134605 58 69 0.0 1.0 0.00 0.00 0.00 52 1012.8
20260509134103 58 69 0.0 1.0 0.00 0.00 0.00 52 1012.8
20260509133605 58 69 0.0 1.0 0.00 0.00 0.00 50 1012.8
20260509133104 58 68 0.0 1.0 0.00 0.00 0.00 48 1012.8
20260509132604 58 68 0.0 2.0 0.00 0.00 0.00 48 1012.7
20260509132104 58 57 0.0 2.0 0.00 0.00 0.00 49 1012.7
20260509131606 58 57 0.0 1.0 0.00 0.00 0.00 51 1012.7
20260509131104 58 60 0.0 1.0 0.00 0.00 0.00 55 1012.7
20260509130605 58 59 0.0 1.0 0.00 0.00 0.00 61 1012.7
20260509130104 58 64 0.0 1.0 0.00 0.00 0.00 61 1012.7
20260509125604 58 65 0.0 1.0 0.00 0.00 0.00 58 1012.6
20260509125104 57 65 0.0 0.0 0.00 0.00 0.00 58 1012.6
20260509124604 57 65 0.0 1.0 0.00 0.00 0.00 60 1012.6
20260509124104 58 65 0.0 1.0 0.00 0.00 0.00 63 1012.6
20260509123604 58 65 1.0 1.0 0.00 0.00 0.00 67 1012.5
20260509123104 58 61 0.0 1.0 0.00 0.00 0.00 68 1012.6
20260509122606 58 61 0.0 0.0 0.00 0.00 0.00 68 1012.5
20260509122104 59 61 0.0 1.0 0.00 0.00 0.00 68 1012.5
20260509121607 59 61 0.0 1.0 0.00 0.00 0.00 68 1012.5
20260509121104 59 61 0.0 1.0 0.00 0.00 0.00 69 1012.4
20260509120604 59 62 0.0 1.0 0.00 0.00 0.00 70 1012.3
20260509120104 59 61 0.0 1.0 0.00 0.00 0.00 70 1012.3
20260509115604 59 61 0.0 1.0 0.00 0.00 0.00 69 1012.4
20260509115103 59 61 0.0 1.0 0.00 0.00 0.00 69 1012.4
20260509114605 59 61 0.0 1.0 0.00 0.00 0.00 69 1012.4
20260509113603 60 60 0.0 1.0 0.00 0.00 0.00 68 1012.4
20260509113104 60 57 0.0 1.0 0.00 0.00 0.00 68 1012.5
20260509112604 60 57 0.0 1.0 0.00 0.00 0.00 67 1012.5
20260509112104 59 57 1.0 1.0 0.00 0.00 0.00 66 1012.6
20260509111607 59 53 0.0 1.0 0.00 0.00 0.00 66 1012.5
20260509111103 60 51 0.0 1.0 0.00 0.00 0.00 69 1012.4
20260509110604 60 51 0.0 1.0 0.00 0.00 0.00 69 1012.4
20260509110105 60 37 0.0 1.0 0.00 0.00 0.00 69 1012.6
20260509105604 60 51 0.0 1.0 0.00 0.00 0.00 69 1012.6
20260509105104 60 36 0.0 1.0 0.00 0.00 0.00 68 1012.7
20260509104603 60 48 0.0 1.0 0.00 0.00 0.00 68 1012.6
20260509104108 60 48 0.0 2.0 0.00 0.00 0.00 67 1012.7
20260509103605 60 47 0.0 2.0 0.00 0.00 0.00 67 1012.7
20260509103104 60 42 1.0 2.0 0.00 0.00 0.00 68 1012.7
20260509102606 60 36 0.0 2.0 0.00 0.00 0.00 70 1012.7
20260509102104 60 35 0.0 2.0 0.00 0.00 0.00 70 1012.7
20260509101606 60 27 1.0 2.0 0.00 0.00 0.00 70 1012.8
20260509101104 60 354 0.0 1.0 0.00 0.00 0.00 70 1012.8
20260509095604 60 355 0.0 0.0 0.00 0.00 0.00 70 1012.8
20260509095104 60 355 0.0 0.0 0.00 0.00 0.00 71 1012.8
20260509094604 60 355 0.0 0.0 0.00 0.00 0.00 71 1013.0
20260509094104 60 355 0.0 0.0 0.00 0.00 0.00 71 1013.0
20260509093604 60 355 0.0 1.0 0.00 0.00 0.00 70 1013.0
20260509093105 60 355 0.0 1.0 0.00 0.00 0.00 71 1013.1
20260509092605 60 355 0.0 2.0 0.00 0.00 0.00 71 1013.1
20260509092105 60 355 0.0 2.0 0.00 0.00 0.00 70 1013.2
20260509091605 61 349 0.0 1.0 0.00 0.00 0.00 70 1013.2
20260509091104 61 349 0.0 1.0 0.00 0.00 0.00 70 1013.2
20260509090604 61 348 0.0 1.0 0.00 0.00 0.00 70 1013.2
20260509090104 61 348 0.0 1.0 0.00 0.00 0.00 70 1013.2
20260509085604 61 348 0.0 1.0 0.00 0.00 0.00 71 1013.2
20260509084604 61 341 0.0 1.0 0.00 0.00 0.00 72 1013.4
20260509084104 61 340 0.0 1.0 0.00 0.00 0.00 72 1013.5
20260509083605 61 341 1.0 1.0 0.00 0.00 0.00 71 1013.6
20260509083104 61 336 0.0 1.0 0.00 0.00 0.00 71 1013.6
20260509082606 61 336 0.0 1.0 0.00 0.00 0.00 71 1013.6
20260509082104 61 336 0.0 1.0 0.00 0.00 0.00 71 1013.7
20260509081606 61 336 0.0 1.0 0.00 0.00 0.00 71 1013.7
20260509081105 61 335 0.0 1.0 0.00 0.00 0.00 70 1013.7
20260509080604 61 336 0.0 1.0 0.00 0.00 0.00 70 1013.7
20260509080105 61 336 0.0 1.0 0.00 0.00 0.00 70 1013.7
20260509075604 61 336 0.0 1.0 0.00 0.00 0.00 70 1013.8
20260509075105 61 336 0.0 1.0 0.00 0.00 0.00 70 1013.8
20260509074604 61 334 0.0 1.0 0.00 0.00 0.00 70 1013.9
20260509074104 61 330 0.0 1.0 0.00 0.00 0.00 69 1014.0
20260509073104 62 329 0.0 1.0 0.00 0.00 0.00 69 1014.1
20260509072605 62 328 0.0 1.0 0.00 0.00 0.00 69 1014.1
20260509072104 62 327 0.0 1.0 0.00 0.00 0.00 69 1014.1
20260509071604 62 327 0.0 1.0 0.00 0.00 0.00 69 1014.1
20260509071104 62 327 0.0 0.0 0.00 0.00 0.00 69 1014.1
20260509070604 62 327 0.0 0.0 0.00 0.00 0.00 69 1014.2
20260509070105 62 327 0.0 0.0 0.00 0.00 0.00 69 1014.2
20260509065604 63 327 0.0 0.0 0.00 0.00 0.00 68 1014.2
20260509065103 63 327 0.0 0.0 0.00 0.00 0.00 68 1014.3
20260509064604 63 327 0.0 0.0 0.00 0.00 0.00 67 1014.3
20260509064103 63 327 0.0 0.0 0.00 0.00 0.00 67 1014.3
20260509063604 63 327 0.0 0.0 0.00 0.00 0.00 67 1014.3
20260509063104 64 327 0.0 0.0 0.00 0.00 0.00 66 1014.3
20260509062607 64 327 0.0 0.0 0.00 0.00 0.00 66 1014.3
20260509062104 64 327 0.0 1.0 0.00 0.00 0.00 65 1014.3
20260509061607 65 327 0.0 1.0 0.00 0.00 0.00 65 1014.3
20260509061103 65 327 0.0 0.0 0.00 0.00 0.00 65 1014.3
20260509060105 65 327 0.0 0.0 0.00 0.00 0.00 64 1014.3
20260509055104 65 327 0.0 0.0 0.00 0.00 0.00 63 1014.3
20260509053605 66 327 0.0 1.0 0.00 0.00 0.00 62 1014.3
20260509053104 66 327 0.0 2.0 0.00 0.00 0.00 62 1014.3
20260509052604 66 327 0.0 2.0 0.00 0.00 0.00 61 1014.3
20260509052104 67 327 0.0 2.0 0.00 0.00 0.00 61 1014.3
20260509051103 67 323 0.0 1.0 0.00 0.00 0.00 60 1014.3
20260509050604 68 323 0.0 2.0 0.00 0.00 0.00 60 1014.3
20260509050105 68 323 0.0 3.0 0.00 0.00 0.00 59 1014.3
20260509045104 68 319 0.0 2.0 0.00 0.00 0.00 58 1014.3
20260509044604 69 319 1.0 2.0 0.00 0.00 0.00 58 1014.3
20260509044104 69 320 1.0 2.0 0.00 0.00 0.00 57 1014.3
20260509043603 69 315 0.0 2.0 0.00 0.00 0.00 57 1014.3
20260509043104 69 315 0.0 2.0 0.00 0.00 0.00 57 1014.3
20260509041104 70 316 0.0 2.0 0.00 0.00 0.00 55 1014.0
20260509040604 71 308 0.0 2.0 0.00 0.00 0.00 55 1013.9
20260509040104 71 306 0.0 3.0 0.00 0.00 0.00 54 1013.8
20260509035604 71 312 0.0 3.0 0.00 0.00 0.00 54 1013.9
20260509035104 71 298 1.0 3.0 0.00 0.00 0.00 53 1013.8
20260509034604 72 295 1.0 5.0 0.00 0.00 0.00 52 1013.9
20260509034103 72 294 3.0 5.0 0.00 0.00 0.00 51 1013.8
20260509033604 72 291 1.0 3.0 0.00 0.00 0.00 51 1013.8
20260509033104 72 282 1.0 3.0 0.00 0.00 0.00 50 1013.7
20260509032604 72 279 0.0 3.0 0.00 0.00 0.00 50 1013.7
20260509032106 72 278 0.0 3.0 0.00 0.00 0.00 50 1013.7
20260509031604 72 278 2.0 5.0 0.00 0.00 0.00 50 1013.7
20260509031106 72 278 2.0 5.0 0.00 0.00 0.00 50 1013.7
20260509030604 73 277 2.0 5.0 0.00 0.00 0.00 50 1013.6
20260509030104 73 276 2.0 3.0 0.00 0.00 0.00 50 1013.5
20260509025604 73 274 3.0 3.0 0.00 0.00 0.00 50 1013.4
20260509025104 74 273 2.0 3.0 0.00 0.00 0.00 50 1013.3
20260509024605 74 273 2.0 3.0 0.00 0.00 0.00 49 1013.2
20260509024103 75 272 2.0 3.0 0.00 0.00 0.00 49 1013.2
20260509023604 75 272 2.0 3.0 0.00 0.00 0.00 48 1013.1
20260509022606 76 272 2.0 3.0 0.00 0.00 0.00 47 1013.1
20260509022103 77 272 2.0 5.0 0.00 0.00 0.00 47 1013.0
20260509021607 77 272 2.0 5.0 0.00 0.00 0.00 46 1013.0
20260509021103 78 269 2.0 5.0 0.00 0.00 0.00 45 1012.9
20260509020603 78 269 3.0 6.0 0.00 0.00 0.00 44 1012.9
20260509015604 79 269 3.0 6.0 0.00 0.00 0.00 42 1012.7
20260509015104 80 275 3.0 7.0 0.00 0.00 0.00 42 1012.7
20260509014604 80 295 5.0 7.0 0.00 0.00 0.00 41 1012.6
20260509014104 80 273 4.0 7.0 0.00 0.00 0.00 42 1012.6
20260509013603 80 259 5.0 7.0 0.00 0.00 0.00 41 1012.6
20260509013104 80 261 5.0 9.0 0.00 0.00 0.00 39 1012.6
20260509012604 81 262 6.0 9.0 0.00 0.00 0.00 40 1012.6
20260509012103 81 266 6.0 9.0 0.00 0.00 0.00 40 1012.6
20260509011104 82 288 6.0 10.0 0.00 0.00 0.00 38 1012.6
20260509010604 82 256 6.0 10.0 0.00 0.00 0.00 38 1012.6
20260509005604 83 266 6.0 12.0 0.00 0.00 0.00 37 1012.6
20260509005104 84 282 6.0 12.0 0.00 0.00 0.00 36 1012.5
20260509004104 84 266 6.0 12.0 0.00 0.00 0.00 37 1012.5
20260509003104 85 276 6.0 12.0 0.00 0.00 0.00 36 1012.4
20260509002605 85 288 5.0 12.0 0.00 0.00 0.00 36 1012.3
20260509002104 85 266 6.0 12.0 0.00 0.00 0.00 35 1012.4
20260509001104 85 273 6.0 12.0 0.00 0.00 0.00 33 1012.4
20260509000604 86 278 7.0 12.0 0.00 0.00 0.00 31 1012.4
20260509000104 86 263 6.0 12.0 0.00 0.00 0.00 32 1012.4
20260508234604 88 293 6.0 9.0 0.00 0.00 0.00 29 1012.3
20260508234104 88 292 5.0 8.0 0.00 0.00 0.00 27 1012.2
20260508233604 88 297 4.0 12.0 0.00 0.00 0.00 27 1012.2
20260508233104 87 267 3.0 12.0 0.00 0.00 0.00 27 1012.3
20260508232604 87 311 3.0 10.0 0.00 0.00 0.00 28 1012.3
20260508232104 88 310 6.0 10.0 0.00 0.00 0.00 29 1012.4
20260508231606 88 288 2.0 6.0 0.00 0.00 0.00 26 1012.5
20260508231104 88 257 4.0 7.0 0.00 0.00 0.00 28 1012.6
20260508230604 89 294 3.0 8.0 0.00 0.00 0.00 25 1012.7
20260508230104 89 274 3.0 8.0 0.00 0.00 0.00 21 1012.7
20260508225604 89 281 2.0 8.0 0.00 0.00 0.00 25 1012.7
20260508225104 89 271 3.0 8.0 0.00 0.00 0.00 21 1012.7
20260508224604 90 291 4.0 8.0 0.00 0.00 0.00 22 1012.8
20260508224104 89 261 0.0 8.0 0.00 0.00 0.00 20 1012.8
20260508223604 88 236 3.0 8.0 0.00 0.00 0.00 19 1012.8
20260508223104 88 279 4.0 8.0 0.00 0.00 0.00 24 1012.8
20260508222604 88 272 4.0 8.0 0.00 0.00 0.00 23 1013.0
20260508221606 88 230 3.0 8.0 0.00 0.00 0.00 24 1013.1
20260508221104 88 310 2.0 6.0 0.00 0.00 0.00 26 1013.2
20260508220604 87 258 3.0 8.0 0.00 0.00 0.00 24 1013.2
20260508220104 87 291 4.0 8.0 0.00 0.00 0.00 25 1013.2
20260508215104 86 248 3.0 7.0 0.00 0.00 0.00 25 1013.3
20260508214604 86 287 4.0 8.0 0.00 0.00 0.00 25 1013.3
20260508214104 86 272 4.0 8.0 0.00 0.00 0.00 29 1013.4
20260508213604 86 281 3.0 10.0 0.00 0.00 0.00 29 1013.4
20260508213104 86 261 5.0 10.0 0.00 0.00 0.00 27 1013.6
20260508212105 86 277 5.0 10.0 0.00 0.00 0.00 28 1013.7
20260508211607 87 308 4.0 7.0 0.00 0.00 0.00 28 1013.7
20260508211104 86 312 2.0 7.0 0.00 0.00 0.00 28 1013.7
20260508210604 85 297 2.0 7.0 0.00 0.00 0.00 30 1013.8
20260508205103 85 276 5.0 7.0 0.00 0.00 0.00 31 1013.8
20260508204105 85 238 4.0 7.0 0.00 0.00 0.00 31 1014.0
20260508203104 84 231 3.0 7.0 0.00 0.00 0.00 33 1014.1
20260508202604 83 285 3.0 7.0 0.00 0.00 0.00 32 1014.2
20260508202104 83 280 3.0 7.0 0.00 0.00 0.00 32 1014.3
20260508201606 83 295 3.0 7.0 0.00 0.00 0.00 34 1014.3
20260508201105 83 254 3.0 7.0 0.00 0.00 0.00 31 1014.3
20260508200604 83 292 3.0 7.0 0.00 0.00 0.00 34 1014.3
20260508195604 82 290 5.0 9.0 0.00 0.00 0.00 34 1014.4
20260508195104 81 271 2.0 9.0 0.00 0.00 0.00 35 1014.5
20260508194604 81 296 3.0 8.0 0.00 0.00 0.00 36 1014.6
20260508193604 81 264 4.0 7.0 0.00 0.00 0.00 32 1014.7
20260508192604 80 294 4.0 9.0 0.00 0.00 0.00 32 1014.9
20260508192105 80 296 4.0 8.0 0.00 0.00 0.00 32 1014.9
20260508191604 80 274 3.0 7.0 0.00 0.00 0.00 35 1014.8
20260508191106 79 282 3.0 7.0 0.00 0.00 0.00 39 1014.9
20260508190605 79 294 3.0 7.0 0.00 0.00 0.00 41 1014.9
20260508190105 78 284 3.0 7.0 0.00 0.00 0.00 43 1014.8
20260508185104 77 269 4.0 9.0 0.00 0.00 0.00 45 1014.8
20260508184604 77 319 5.0 9.0 0.00 0.00 0.00 47 1014.8
20260508184104 76 260 5.0 9.0 0.00 0.00 0.00 46 1014.9
20260508183605 76 304 5.0 9.0 0.00 0.00 0.00 47 1014.9
20260508183104 76 238 5.0 8.0 0.00 0.00 0.00 48 1014.9
20260508181606 75 301 4.0 7.0 0.00 0.00 0.00 49 1014.9
20260508181104 74 294 3.0 8.0 0.00 0.00 0.00 48 1015.0